This demonstration page uses our WeatherBlox Daily Observations layout. Learn more.

Left ArrowRight Arrow

Hourly Observations for May 7, 2022

Temp ( °F °C ) Dew Point ( °F °C ) Humidity (%) Winds ( mph kmh ) Pressure ( in mb ) Visibility ( mi km ) Precip ( " mm )
12:53 am 00:53 Clear 57 13.9 53 11.7 87 87 SE 8 13 29.83 1010 10 16 0.00 0.00
1:53 am 01:53 Mostly Clear 56 13.3 53 11.7 90 90 E 7 11 29.83 1010 10 16 0.00 0.00
2:53 am 02:53 Mostly Clear 55 12.8 52 11.1 90 90 E 6 9 29.83 1010 10 16 0.00 0.00
3:53 am 03:53 Clear 55 12.8 52 11.1 90 90 SSE 5 7 29.83 1010 10 16 0.00 0.00
4:53 am 04:53 Clear 54 12.2 52 11.1 93 93 SSE 7 11 29.84 1011 10 16 0.00 0.00
5:53 am 05:53 Clear 54 12.2 52 11.1 93 93 ESE 8 13 29.83 1010 10 16 0.00 0.00
6:53 am 06:53 Sunny 54 12.2 52 11.1 93 93 SE 9 15 29.85 1011 10 16 0.00 0.00
7:53 am 07:53 Sunny 58 14.4 54 12.2 87 87 SE 9 15 29.85 1011 10 16 0.00 0.00
8:53 am 08:53 Sunny 62 16.7 55 12.8 78 78 SE 14 22 29.84 1011 10 16 0.00 0.00
9:53 am 09:53 Sunny 66 18.9 56 13.3 70 70 SE 14 22 29.84 1011 10 16 0.00 0.00
10:53 am 10:53 Sunny 70 21.1 59 15 68 68 SSE 15 24 29.82 1010 10 16 0.00 0.00
11:53 am 11:53 Mostly Sunny 72 22.2 58 14.4 61 61 SSE 16 26 29.81 1009 10 16 0.00 0.00
12:53 pm 12:53 Mostly Sunny 73 22.8 60 15.6 64 64 SSE 18 30 29.79 1009 10 16 0.00 0.00
1:53 pm 13:53 Mostly Sunny 75 23.9 60 15.6 60 60 SE 16 26 29.75 1008 10 16 0.00 0.00
2:53 pm 14:53 Mostly Sunny 77 25 58 14.4 52 52 SE 17 28 29.71 1006 10 16 0.00 0.00
3:53 pm 15:53 Partly Cloudy 78 25.6 60 15.6 54 54 SE 20 31 29.67 1005 10 16 0.00 0.00
4:53 pm 16:53 Partly Cloudy 78 25.6 60 15.6 54 54 SE 22 35 29.64 1004 10 16 0.00 0.00
5:53 pm 17:53 Partly Cloudy 77 25 59 15 54 54 SE 24 39 29.61 1003 10 16 0.00 0.00
6:53 pm 18:53 Mostly Cloudy 75 23.9 58 14.4 55 55 SE 20 31 29.60 1002 10 16 0.00 0.00
7:53 pm 19:53 Mostly Cloudy 73 22.8 58 14.4 59 59 SE 17 28 29.59 1002 10 16 0.00 0.00
8:53 pm 20:53 Partly Cloudy 71 21.7 58 14.4 63 63 SE 15 24 29.59 1002 10 16 0.00 0.00
9:53 pm 21:53 Partly Cloudy 70 21.1 57 13.9 64 64 SE 15 24 29.58 1002 10 16 0.00 0.00
10:53 pm 22:53 Cloudy 71 21.7 56 13.3 59 59 SE 22 35 29.55 1001 10 16 0.00 0.00
11:48 pm 23:48 Cloudy 72 22 57 14 61 61 SSE 21 33 29.53 1000 10 16 0.00 0.00
11:53 pm 23:53 Cloudy 71 21.7 57 13.9 61 61 SSE 18 30 29.54 1000 10 16 0.00 0.00

Powered by AerisWeather